RH
12 12 12 12 12 12 12 12 12 11 11 12 11 11 10 10 9 8 8 8 7 7 7 7 6 6 6 6 6 6 5 5 6 6 8 10 10 11 10 8 8 8 7 8 8 11 15 15 14 13 12 10 9 10 11 11 10 9 9 10 9 8 9 8 8 8 10 12 12 13 12 13 13 14 18 24 32 33 33 39 42 43 47 47 46 46 48 50
12 12 12 12 12 11 11 11 11 10 10 10 10 9 9 9 8 8 8 7 7 7 7 6 6 6 6 6 6 5 5 6 8 9 9 9 9 10 10 8 8 8 8 10 10 13 15 14 14 13 11 10 9 10 11 11 10 9 10 11 10 10 10 8 8 8 9 11 12 13 13 13 14 15 16 19 28 32 32 39 42 43 46 46 45 47 48 48
14 13 12 12 11 11 11 11 11 10 10 9 9 9 9 8 8 8 7 7 7 7 7 7 7 6 6 6 6 6 5 7 11 12 10 8 9 9 10 8 8 8 10 12 13 13 13 13 13 12 11 10 10 11 10 11 10 9 11 11 10 10 9 8 7 8 8 10 11 12 13 14 14 15 16 18 23 29 33 37 40 42 43 42 42 45 47 49
16 15 14 13 12 12 11 11 10 10 10 9 9 8 8 8 8 8 8 7 7 7 7 7 7 7 7 7 6 6 5 8 12 12 10 9 9 9 9 9 8 9 11 14 15 14 13 13 13 12 11 10 10 11 10 11 11 10 10 11 11 10 9 9 8 9 8 10 12 12 13 14 15 15 18 22 22 28 36 37 38 40 42 42 44 46 49 49
18 17 16 15 14 13 12 11 11 10 10 9 9 9 8 8 8 8 8 8 8 8 8 7 7 7 7 7 7 6 6 10 14 12 10 9 9 9 9 9 8 10 11 14 15 15 14 14 13 12 11 11 11 10 10 10 11 11 9 9 11 9 9 11 9 9 8 10 12 12 13 15 15 15 17 22 20 24 34 38 38 41 44 47 47 48 50 48
19 19 18 17 16 16 14 14 12 11 10 10 9 9 9 8 8 8 8 8 8 8 8 8 8 8 8 8 7 7 6 10 14 13 12 11 10 9 9 9 9 11 14 15 16 15 14 13 13 12 11 11 11 10 10 10 10 10 11 10 9 9 9 10 9 9 8 10 12 13 13 14 15 15 17 20 21 23 30 37 39 41 45 49 50 50 52 51
20 20 19 19 18 17 16 15 14 13 12 11 10 9 9 8 8 8 8 8 8 8 8 8 8 8 8 8 7 8 8 8 9 10 10 12 12 11 9 10 11 12 16 17 17 15 14 13 12 11 11 11 11 10 10 10 10 10 12 12 10 9 9 9 9 9 9 10 12 12 13 14 15 16 17 20 25 27 30 35 39 44 47 51 53 52 54 54
20 20 20 19 19 18 18 17 16 15 14 13 12 11 10 9 8 8 8 8 8 8 8 8 8 9 9 9 9 9 9 8 8 9 9 10 12 13 12 11 12 14 17 18 16 15 14 13 12 11 11 12 11 10 10 9 9 9 10 11 9 10 9 9 9 9 9 9 11 12 12 14 15 16 16 20 29 33 35 39 42 46 50 52 52 52 53 53
19 19 19 19 19 18 18 17 16 15 15 14 14 13 12 11 10 9 8 8 8 8 8 8 8 9 9 9 10 9 8 8 9 11 11 11 11 12 12 12 13 16 18 19 18 16 14 13 12 12 11 12 11 10 10 10 12 10 9 10 9 10 11 10 10 10 10 9 10 11 12 14 15 16 16 21 31 35 38 43 46 47 49 49 50 51 50 50
18 19 19 19 19 18 18 18 17 16 16 15 15 15 14 13 12 11 10 9 8 8 8 8 8 8 7 8 9 8 8 7 8 12 13 12 11 10 12 12 13 16 19 19 19 18 16 14 13 12 12 11 11 11 10 10 13 12 10 10 10 11 11 10 9 10 10 9 9 11 13 15 15 16 18 26 34 36 40 45 47 47 47 48 49 49 48 48
18 18 19 20 20 20 19 19 18 17 16 16 15 15 15 15 14 14 13 11 10 9 8 9 9 8 7 8 8 7 7 7 8 12 14 12 11 11 12 12 12 15 18 18 19 19 17 16 14 13 13 11 11 12 10 10 12 11 10 10 10 10 10 10 9 10 10 9 10 11 13 14 15 17 19 28 36 36 41 47 48 48 47 47 49 49 49 50
18 19 20 21 21 21 20 19 18 17 15 14 13 13 14 13 14 14 14 14 13 12 10 9 9 9 8 9 9 7 7 7 8 11 12 12 12 12 12 12 13 15 16 16 17 18 17 17 15 14 14 13 12 13 11 11 11 10 10 10 12 11 11 11 11 11 10 10 10 11 13 12 15 20 22 28 35 36 41 47 48 47 46 48 50 50 52 51
17 19 20 21 21 21 21 20 18 16 15 13 12 12 12 12 12 12 13 13 14 13 12 11 10 9 9 11 10 8 8 7 7 9 10 11 13 13 12 12 14 15 15 15 16 17 17 17 16 14 14 14 15 14 13 12 10 11 11 12 13 12 12 12 12 10 9 10 10 10 13 15 17 20 24 29 34 37 40 45 46 45 46 50 52 52 53 51
17 18 20 21 22 22 21 20 19 17 15 14 12 12 12 12 11 11 12 12 12 14 13 13 12 11 13 13 10 8 8 8 8 8 8 10 12 12 13 12 13 14 15 15 16 17 17 17 17 15 14 16 16 14 14 14 12 13 14 13 13 13 14 13 12 11 11 11 10 10 13 19 21 20 25 32 35 37 41 45 45 44 46 49 53 54 52 49
16 18 20 21 22 21 21 21 20 18 16 14 13 12 12 12 11 11 11 11 11 12 13 14 14 16 17 14 12 11 11 11 11 10 9 9 11 12 13 13 14 13 14 15 15 16 18 19 18 16 15 15 15 14 16 17 16 16 16 16 14 14 16 14 12 12 12 12 10 10 12 17 19 18 25 34 37 38 41 44 44 42 43 47 52 53 50 47
17 19 20 21 21 21 21 21 21 19 17 15 13 12 12 11 11 10 10 10 12 12 13 15 15 18 19 16 17 16 16 17 16 15 13 11 11 13 14 15 15 15 15 14 14 15 18 19 18 17 17 16 15 17 17 18 18 18 17 20 18 15 16 15 13 12 12 13 12 12 13 15 18 17 23 33 37 38 40 44 43 40 41 44 50 51 47 47
18 19 20 21 21 21 22 22 21 19 18 15 13 13 12 12 11 11 12 12 13 14 15 17 19 20 18 17 19 19 19 19 19 19 16 13 12 13 15 16 17 17 17 15 14 14 16 17 17 17 17 18 19 19 19 19 20 20 18 19 19 17 16 16 16 14 13 14 13 13 14 15 18 16 19 28 36 37 39 43 44 43 42 42 49 51 45 48
20 20 20 20 20 21 21 22 21 20 18 16 14 14 14 13 13 14 15 15 16 17 17 19 20 19 18 16 16 18 19 18 19 19 17 15 14 14 15 18 19 19 17 16 15 14 14 15 15 18 19 19 21 19 19 21 21 23 21 20 20 18 17 17 17 16 14 15 14 14 15 15 17 16 17 23 31 35 38 44 47 47 46 42 46 49 45 46
21 21 20 19 20 20 21 22 21 20 18 16 15 14 14 16 18 19 19 19 20 19 19 20 18 15 17 18 16 16 18 17 17 18 17 17 17 16 15 18 19 20 19 18 17 15 14 15 15 20 22 21 20 18 19 21 20 22 22 22 22 20 19 17 17 16 15 16 15 15 16 16 17 17 17 20 26 30 34 42 46 47 47 43 44 46 46 47
21 20 19 19 19 20 21 21 21 20 18 17 15 15 19 22 22 23 23 22 21 18 16 18 17 14 14 16 17 18 18 18 18 18 18 17 18 18 16 17 20 22 22 20 20 17 14 17 17 18 21 21 22 21 20 21 21 21 22 23 22 21 20 19 18 17 16 16 16 15 16 16 17 18 18 19 22 26 28 33 38 40 43 43 41 43 46 50
20 19 19 19 19 20 21 22 22 20 19 18 16 17 23 23 21 22 23 21 19 18 17 17 17 16 14 15 17 17 17 17 17 19 19 19 20 18 16 18 21 23 23 23 24 19 15 18 18 16 19 22 24 24 22 22 21 21 22 22 22 21 20 20 20 19 17 16 16 16 17 16 15 17 19 18 19 22 24 26 29 32 37 40 39 39 44 49
20 20 19 20 20 21 23 23 23 22 20 19 17 20 25 23 21 22 23 20 18 18 18 17 17 17 16 16 15 13 14 15 15 18 20 21 21 19 17 19 21 23 24 25 24 21 19 18 17 18 21 24 25 24 23 24 23 24 24 22 22 21 20 21 21 20 18 17 17 17 18 17 16 17 19 19 17 19 22 23 25 27 31 35 35 36 41 47
22 22 22 22 23 24 25 25 24 22 20 18 18 22 23 21 21 22 24 23 20 19 19 18 18 18 16 15 15 14 14 14 13 16 19 20 22 21 19 18 21 24 25 24 21 21 21 18 18 21 22 22 23 23 24 25 25 25 25 23 23 22 21 22 23 21 19 18 18 19 19 18 17 17 17 19 17 17 19 21 24 26 29 31 31 33 37 42
26 25 25 26 25 26 27 25 24 21 19 19 19 19 20 21 22 24 27 24 19 19 19 19 18 18 18 17 16 15 14 13 13 15 17 20 22 21 19 18 20 24 25 23 20 20 21 19 20 21 20 21 24 25 24 24 24 24 26 25 24 22 21 21 21 20 20 19 19 19 19 17 16 17 16 18 18 16 17 19 23 25 26 30 31 31 32 37
28 28 28 28 27 27 25 23 22 20 19 19 19 19 20 23 23 26 27 25 23 21 19 20 20 20 20 19 18 17 15 13 13 14 15 18 20 21 20 19 21 23 24 24 22 21 22 22 20 21 20 20 25 25 24 24 22 23 26 25 23 21 20 19 19 19 19 21 23 21 19 18 17 18 18 19 19 17 16 17 22 24 24 28 31 30 30 33
30 30 29 28 27 25 24 25 23 20 20 21 21 21 23 24 25 26 28 27 25 23 23 24 24 22 22 21 21 19 15 13 12 14 15 16 18 22 24 23 21 23 23 25 25 24 25 23 21 22 22 21 23 22 22 23 22 23 25 23 21 19 19 19 20 21 19 22 27 24 21 21 21 23 23 20 17 16 17 16 18 21 22 25 27 28 30 33
31 30 29 28 26 23 25 27 24 21 23 25 23 24 26 26 25 28 31 28 25 26 27 26 24 23 23 25 22 18 18 15 12 13 14 15 18 21 24 25 23 23 25 27 28 26 24 24 24 24 24 24 23 22 22 22 23 25 24 21 21 21 20 20 20 21 22 24 28 24 21 22 22 23 25 22 19 17 19 18 16 17 20 22 23 26 29 32
31 30 29 27 25 24 24 24 21 20 23 25 23 25 27 25 26 31 33 28 25 28 30 27 25 24 25 28 24 19 20 18 14 15 13 14 19 20 22 25 25 24 25 26 28 28 25 25 26 25 25 25 22 23 23 22 24 26 23 21 23 22 22 21 20 22 24 25 27 26 24 24 21 21 25 24 21 20 21 22 22 19 18 21 22 24 30 35
30 29 28 26 25 25 23 22 22 21 20 23 25 27 26 25 28 32 33 28 26 29 30 29 28 25 26 29 26 21 22 21 20 19 15 14 18 20 23 26 26 27 26 25 28 30 27 25 25 25 25 23 22 24 23 23 26 26 23 23 23 23 22 22 22 24 28 27 25 27 27 25 22 20 23 25 23 24 28 31 31 25 20 22 23 24 31 37
29 28 27 26 25 25 23 23 22 20 20 22 25 26 24 26 31 33 32 29 28 29 30 30 29 26 25 27 26 23 23 24 23 20 16 15 17 18 22 27 27 28 29 28 28 29 26 25 26 26 26 25 24 25 23 24 26 26 25 25 26 26 24 24 24 25 32 30 24 27 30 27 24 19 22 30 31 32 34 35 32 27 23 24 24 26 31 36
28 27 26 25 25 24 25 25 22 19 20 20 23 24 25 28 30 31 32 29 29 30 29 29 29 27 26 27 28 26 23 22 23 20 17 17 20 20 24 28 28 30 33 30 27 26 26 27 27 26 26 26 25 24 23 23 26 28 27 29 31 30 28 28 28 29 33 31 26 29 31 28 23 22 28 35 34 32 32 32 31 30 28 27 27 28 31 35
27 26 25 24 24 23 24 26 23 19 18 19 21 23 27 30 28 27 27 27 31 32 29 29 29 27 27 29 30 29 26 23 22 24 22 21 23 23 24 28 28 31 35 31 29 29 29 28 28 28 27 25 24 25 24 25 27 29 28 32 33 32 33 33 31 33 31 28 30 30 30 28 23 25 33 35 32 31 30 30 32 32 31 28 28 27 30 35
26 25 24 23 23 23 22 22 22 19 18 20 21 22 28 31 28 26 26 27 32 32 28 29 29 27 28 31 32 31 29 25 23 26 26 24 26 24 23 26 26 29 33 33 34 35 33 31 29 29 28 26 25 26 27 27 28 30 30 33 32 29 35 35 30 30 27 27 33 31 29 28 22 25 33 31 31 32 30 32 35 35 32 29 28 28 30 34
26 25 24 23 23 24 22 22 21 19 20 22 22 25 31 30 26 27 27 27 29 29 28 28 28 29 29 31 33 33 33 30 25 26 28 26 27 27 25 26 25 26 31 36 38 37 36 35 31 29 28 27 26 26 30 31 30 31 30 31 31 29 33 35 30 29 29 31 37 35 30 25 25 34 37 33 33 33 33 37 38 37 35 33 32 32 34 36
28 27 26 25 26 27 26 26 24 20 22 24 23 28 31 27 23 25 26 24 23 25 26 25 27 30 31 31 33 35 35 34 29 28 28 27 27 28 27 27 26 25 28 34 37 36 35 35 32 29 27 27 28 27 29 33 33 32 31 31 32 31 31 34 34 34 33 33 37 37 32 26 31 42 42 40 40 36 37 42 42 41 40 38 37 37 38 41
29 29 29 28 28 27 28 29 26 22 24 24 25 29 28 24 22 22 24 23 20 21 22 22 26 31 32 31 33 36 37 38 35 32 33 31 29 29 28 27 27 25 26 31 34 35 35 35 31 28 27 26 28 29 29 32 33 33 33 31 31 31 32 35 38 36 33 31 33 34 31 29 34 42 44 47 47 42 41 45 44 44 43 42 43 43 45 49
30 31 32 31 28 24 25 28 26 23 24 24 26 28 25 22 21 18 20 21 19 19 18 19 24 29 34 34 34 37 39 41 40 37 38 38 35 34 31 28 28 25 24 29 35 36 35 37 34 28 28 28 28 30 31 30 32 35 37 33 32 33 32 34 37 37 33 31 31 32 31 30 36 44 50 53 53 50 49 49 47 45 46 46 48 49 50 54
32 33 35 33 30 26 23 24 24 22 21 21 24 24 20 19 18 15 16 17 16 15 15 17 20 26 34 36 36 36 38 44 45 40 41 43 42 40 35 32 31 28 27 30 36 39 36 38 38 31 28 29 28 31 33 31 30 33 37 36 38 39 36 35 35 34 34 32 31 33 31 30 34 45 55 57 55 54 53 53 50 47 48 49 51 52 54 57
33 37 40 35 33 33 28 24 21 19 18 19 22 20 16 15 14 13 15 15 13 13 15 18 17 20 29 35 37 37 37 43 47 45 43 44 48 48 42 38 37 37 36 36 39 42 39 40 42 35 29 29 31 32 33 34 32 31 33 35 38 39 40 43 39 34 35 34 35 37 34 40 48 51 55 55 52 55 57 56 53 50 51 52 52 53 54 58
35 42 44 35 34 38 34 29 21 15 15 18 20 17 15 16 15 13 15 15 13 14 18 20 17 19 28 32 34 36 37 40 45 48 51 48 50 54 52 46 45 44 43 42 43 43 42 42 43 39 33 30 33 34 34 37 37 34 34 34 37 37 38 42 40 36 37 38 42 39 36 52 62 54 49 50 51 57 60 57 56 54 54 53 52 53 53 56
36 47 47 36 36 38 36 34 25 17 18 21 21 17 16 19 20 18 19 18 17 18 18 19 19 22 27 30 33 35 37 39 40 43 52 53 52 57 58 54 51 49 47 46 46 45 43 42 42 42 37 33 35 38 37 39 41 40 38 38 40 39 37 38 39 37 35 35 41 40 40 58 65 52 48 51 54 59 60 59 60 58 56 55 55 56 56 58
39 54 51 39 40 40 39 41 32 25 29 31 31 28 23 24 24 24 24 22 22 22 17 16 17 20 24 28 32 34 35 39 40 39 47 54 56 59 61 60 57 54 52 50 48 46 46 44 42 43 41 39 41 41 39 39 39 40 42 42 42 40 39 40 42 44 40 35 39 38 40 59 66 54 52 57 60 62 61 60 61 59 61 61 62 63 64 62
45 55 49 41 44 43 42 42 34 30 34 33 32 31 28 28 26 25 26 25 26 26 22 20 20 21 24 24 27 33 37 41 42 43 47 54 56 57 59 62 62 59 58 56 52 49 47 46 45 45 45 44 44 42 40 39 38 40 43 41 40 41 41 41 43 47 45 41 42 39 40 58 66 57 55 61 64 64 62 61 61 63 68 69 68 68 68 68
48 48 44 43 45 43 42 39 32 32 34 31 29 29 28 28 27 26 26 26 29 29 28 27 24 23 24 22 23 31 38 41 44 46 50 54 56 56 57 61 63 62 62 62 58 53 49 48 47 47 48 49 48 45 42 41 42 46 47 43 40 40 41 41 42 44 43 41 42 41 50 68 69 59 60 62 61 61 61 62 65 69 73 73 71 71 70 70
43 41 41 43 42 42 41 37 32 32 30 29 30 30 29 29 27 26 26 25 25 26 28 30 26 23 23 23 24 28 33 40 46 48 51 55 56 55 58 62 62 62 63 64 62 59 57 55 52 51 51 51 52 51 47 46 47 48 47 44 43 42 42 44 43 41 41 42 41 40 53 71 70 64 67 65 62 65 65 63 66 69 71 70 70 71 70 68
42 40 39 39 39 38 37 33 30 31 30 31 34 35 35 35 32 28 27 28 26 24 26 28 25 23 24 24 27 28 30 37 44 46 50 55 56 53 57 62 60 60 63 64 63 61 61 62 59 59 60 57 57 58 53 50 54 55 50 47 46 45 45 47 46 46 47 45 44 44 51 65 70 67 68 67 68 74 73 69 70 70 69 68 68 69 68 67
43 42 38 39 38 34 33 30 29 31 33 35 39 41 40 39 37 33 33 34 32 28 28 27 25 27 28 27 29 31 30 33 40 45 47 51 54 53 55 60 60 61 63 61 61 62 63 66 65 65 65 62 61 62 57 53 56 58 55 51 49 48 50 51 50 54 56 50 50 54 54 62 68 65 63 67 72 78 77 74 74 73 70 69 69 69 69 71
40 40 37 39 37 32 32 32 31 33 35 36 40 43 42 40 40 41 39 37 36 34 35 35 32 30 28 27 30 34 33 34 42 47 45 48 53 54 56 58 58 60 61 58 61 64 65 69 71 69 68 66 64 63 60 57 56 55 54 54 53 52 53 56 56 57 58 55 58 66 64 63 64 63 65 71 74 76 78 76 77 76 72 70 71 72 72 73
39 41 38 36 35 33 33 32 30 34 38 40 42 43 43 41 41 44 42 40 41 39 38 42 41 34 30 29 32 39 40 39 44 46 44 46 51 53 58 62 61 59 58 58 63 66 67 69 70 70 73 75 74 71 66 62 58 56 55 54 55 56 55 57 58 57 56 57 61 66 67 65 64 65 69 73 74 77 79 79 79 78 77 76 76 76 75 73
40 42 38 35 33 32 33 31 29 33 37 40 42 43 43 43 43 44 43 44 46 44 41 43 43 39 36 34 36 40 40 39 42 44 43 46 50 50 55 63 68 66 61 62 69 71 70 70 67 68 74 79 80 77 74 71 66 63 62 59 58 63 63 60 61 61 61 61 60 62 66 69 68 68 71 74 76 79 80 79 79 80 82 82 79 76 75 74
42 39 36 36 35 33 32 29 28 33 36 36 40 42 44 45 43 43 45 44 46 47 44 43 43 42 42 41 40 40 38 38 41 41 41 44 46 48 51 54 61 67 66 70 79 78 72 71 70 71 75 80 81 80 80 80 74 69 71 71 69 71 71 66 64 67 68 67 65 66 71 74 72 72 76 77 77 80 81 79 78 79 82 82 78 75 75 77
42 38 33 34 37 35 31 29 28 31 34 37 41 43 45 46 42 42 46 45 44 46 46 44 44 44 45 46 44 41 40 42 43 43 43 44 45 47 49 50 53 59 66 74 82 82 77 75 75 73 74 77 80 81 83 83 78 76 80 82 80 77 75 71 69 68 69 70 71 73 76 76 74 75 80 81 80 83 85 82 80 78 79 79 77 76 78 80